This is the latest recevied weather packets stored in our database for station/object KN6WGU. If no packets are shown the sender has not sent any weather packets the latest 10 day(s).
| Time | Temp. | Humidity | Pressure | Rain* | Wind** | Luminosity | Snow |
|---|---|---|---|---|---|---|---|
| 1788414823 | 25° C | 78% | 1008.7 hPa | 0 mm | - | 0 W/m² | - |
| 1788414518 | 25° C | 77% | 1008.6 hPa | 0 mm | - | 0 W/m² | - |
| 1788414218 | 25° C | 78% | 1008.8 hPa | 0 mm | - | 0 W/m² | - |
| 1788413914 | 25° C | 79% | 1008.9 hPa | 0 mm | - | 0 W/m² | - |
| 1788413610 | 25° C | 79% | 1008.9 hPa | 0 mm | - | 0 W/m² | - |
| 1788413306 | 25° C | 79% | 1009.1 hPa | 0 mm | - | 0 W/m² | - |
| 1788413001 | 25.56° C | 78% | 1009 hPa | 0 mm | - | 0 W/m² | - |
| 1788412703 | 26.67° C | 77% | 1008.8 hPa | 0 mm | - | 0 W/m² | - |
| 1788412392 | 28.89° C | 75% | 1008.7 hPa | 0 mm | - | 0 W/m² | - |
| 1788412087 | 28.89° C | 75% | 1007.5 hPa | 0 mm | - | 0 W/m² | - |
| 1788411786 | 28.89° C | 76% | 1007.4 hPa | 0 mm | - | 0 W/m² | - |
| 1788411481 | 28.89° C | 76% | 1007.3 hPa | 0 mm | - | 0 W/m² | - |
| 1788411177 | 28.33° C | 77% | 1007.1 hPa | 0 mm | - | 0 W/m² | - |
| 1788410887 | 28.33° C | 76% | 1007.2 hPa | 0 mm | - | 0 W/m² | - |
| 1788410568 | 28.33° C | 76% | 1007.2 hPa | 0 mm | - | 0 W/m² | - |
| 1788410265 | 28.33° C | 76% | 1006.9 hPa | 0 mm | - | 0 W/m² | - |
| 1788409964 | 28.33° C | 76% | 1006.9 hPa | 0 mm | - | 0 W/m² | - |
| 1788409663 | 28.33° C | 76% | 1006.9 hPa | 0 mm | - | 0 W/m² | - |
| 1788409359 | 28.89° C | 75% | 1006.8 hPa | 0 mm | - | 0 W/m² | - |
| 1788409055 | 28.33° C | 75% | 1006.7 hPa | 0 mm | - | 0 W/m² | - |
| 1788408751 | 28.33° C | 76% | 1006.6 hPa | 0 mm | - | 0 W/m² | - |
| 1788408450 | 28.33° C | 75% | 1006.7 hPa | 0 mm | - | 0 W/m² | - |
| 1788408145 | 28.33° C | 76% | 1006.6 hPa | 0 mm | - | 0 W/m² | - |
| 1788407841 | 28.33° C | 76% | 1006.7 hPa | 0 mm | - | 0 W/m² | - |
| 1788407537 | 28.33° C | 76% | 1006.5 hPa | 0 mm | - | 0 W/m² | - |
* Rain latest hour (hover to see other rain measurements)
** Current wind speed in m/s (hover to see current wind gust speed)